This demonstration page uses our WeatherBlox Daily Observations layout. Learn more.

41.55636, -103.73856

Hourly Observations for July 28, 2016

Temp ( °F °C ) Dew Point ( °F °C ) Humidity (%) Winds ( mph kmh ) Pressure ( in mb ) Visibility ( mi km ) Precip ( " mm )
12:53 am 00:53 Clear 65 18.3 61 16.1 87 87 ESE 8 13 30.02 1017 10 16.0934 0 0
1:53 am 01:53 Clear 63 17.2 59 15 87 87 E 8 13 30 1016 10 16.0934 0 0
2:53 am 02:53 Clear 62 16.7 58 14.4 86 86 E 9 15 29.98 1015 10 16.0934 0 0
3:53 am 03:53 Mostly Clear 61 16.1 57 13.9 87 87 E 8 13 29.96 1015 10 16.0934 0 0
4:53 am 04:53 Mostly Cloudy 62 16.7 58 14.4 86 86 NNW 9 15 30.02 1017 10 16.0934 0 0
5:06 am 05:06 Cloudy with Nearby Thunderstorms 65 18.3 58 14.4 78 78 NNE 16 26 30.03 1017 10 16.0934 0 0
5:13 am 05:13 Cloudy with Thunderstorms 66 18.9 57 13.9 73 73 NNE 28 44 30 1016 10 16.0934 0 0
5:22 am 05:22 Cloudy with Thunderstorms 61 16 55 13 83 83 NNE 26 43 30.03 1017 10 16.0934 0 0
5:30 am 05:30 Cloudy with Nearby Thunderstorms 61 16 54 12 77 77 NE 28 44 30.06 1018 10 16.0934 0 0
5:53 am 05:53 Cloudy 62 16.7 54 12.2 75 75 NE 21 33 30.06 1018 10 16.0934 0 0
6:53 am 06:53 Cloudy 62 16.7 56 13.3 80 80 E 14 22 30.04 1017 10 16.0934 0 0
7:53 am 07:53 Sunny 66 18.9 56 13.3 70 70 SE 13 20 30.04 1017 10 16.0934 0 0
8:53 am 08:53 Cloudy with Nearby Thunderstorms 66 18.9 55 12.8 68 68 SSE 10 17 30.03 1017 10 16.0934 0 0
9:06 am 09:06 Cloudy with Thunderstorms 66 19 55 13 68 68 NNW 8 13 30.03 1017 10 16.0934 0 0
9:21 am 09:21 Cloudy with Heavy Thunderstorms 66 19 54 12 64 64 ENE 16 26 30.03 1017 2 3.21868 0 0
9:27 am 09:27 Cloudy with Heavy Thunderstorms 62 16.7 56 13.3 80 80 ENE 17 28 30.06 1018 1.25 2.011675 0.14 3.556
9:34 am 09:34 Cloudy with Light Thunderstorms 61 16 55 13 83 83 NE 18 30 30.06 1018 3 4.82802 0 0
9:53 am 09:53 Cloudy with Thunderstorms 61 16 N/A N/A NE 10 17 30.1 1019 10 16.0934 0.15 3.81
10:11 am 10:11 Cloudy with Heavy Rain 61 16 N/A N/A VRB 7 11 30.09 1019 1.75 2.816345 0.1 2.54
10:16 am 10:16 Cloudy with Nearby Thunderstorms 61 16 N/A N/A NE 9 15 30.09 1019 2 3.21868 0 0
10:24 am 10:24 Cloudy with Nearby Thunderstorms 61 16 N/A N/A ENE 9 15 30.09 1019 10 16.0934 0 0
10:33 am 10:33 Cloudy with Light Thunderstorms 61 16 N/A N/A VRB 6 9 30.09 1019 9 14.48406 0.14 3.556
10:48 am 10:48 Mostly Cloudy with Nearby Thunderstorms 61 16 N/A N/A WSW 5 7 30.09 1019 4 6.43736 0.18 4.572
10:53 am 10:53 Mostly Cloudy with Nearby Thunderstorms 61 16 N/A N/A W 6 9 30.15 1021 7 11.26538 0.18 4.572
11:06 am 11:06 Partly Cloudy 64 18 N/A N/A WNW 6 9 30.12 1020 10 16.0934 0 0
11:53 am 11:53 Sunny 66 19 N/A N/A SE 15 24 30.06 1018 10 16.0934 0 0.0254
12:53 pm 12:53 Sunny 72 22.2 57 13.9 59 59 E 5 7 30.07 1018 10 16.0934 0 0
1:53 pm 13:53 Sunny 74 23.3 56 13.3 54 54 VRB 3 6 30.06 1018 10 16.0934 0 0
2:53 pm 14:53 Sunny 77 25 54 12.2 45 45 ENE 6 9 30.04 1017 10 16.0934 0 0
3:53 pm 15:53 Sunny 79 26.1 55 12.8 44 44 WNW 5 7 30.01 1016 10 16.0934 0 0
4:53 pm 16:53 Sunny 80 26.7 53 11.7 39 39 VRB 3 6 30.01 1016 10 16.0934 0 0
5:53 pm 17:53 Sunny 81 27.2 54 12.2 39 39 Calm 30.01 1016 10 16.0934 0 0
6:53 pm 18:53 Sunny 79 26.1 57 13.9 47 47 E 8 13 30.01 1016 10 16.0934 0 0
7:53 pm 19:53 Partly Cloudy 74 23.3 61 16.1 64 64 E 8 13 30.03 1017 10 16.0934 0 0
8:53 pm 20:53 Cloudy 70 21.1 61 16.1 73 73 ESE 7 11 30.04 1017 10 16.0934 0 0
9:53 pm 21:53 Clear 67 19.4 61 16.1 81 81 ESE 3 6 30.08 1019 10 16.0934 0 0
10:53 pm 22:53 Clear 64 18 61 16 88 88 NNE 3 6 30 1016 10 16.0934 0 0
11:53 pm 23:53 Clear 63 17.2 60 15.6 90 90 NE 6 9 30.07 1018 10 16.0934 0 0

Powered by AerisWeather